User: anonymous   Login
Location: Unspecified
(0.0000°N, 0.0000°E)
Time: 20:01:57
(UTC+00:00)
Language:

TDRS H - Orbit

View from above orbital plane
View from above orbital plane
View from above satellite
View from above satellite

Ground track
Ground track

The orbit is defined by the following mean orbital elements,

1 26388U          26144.72683588 +.00000000 +00000-0 +00000-0 0 00004
2 26388  12.6477  31.5213 0005190   5.3612 191.9576  1.00271478    01
Epoch (UTC): 24 May 2026 17:26:38
Eccentricity: 0.0005190
inclination: 12.6477°
perigee height: 35765 km
apogee height: 35809 km
right ascension of ascending node: 31.5213°
argument of perigee: 5.3612°
revolutions per day: 1.00271478
mean anomaly at epoch: 191.9576°

The dashed part of the orbit path shows where the satellite is in the earth's shadow,  

DLR